| time (UTC) | temp F | wind direction | speed knots | gust knots | rain 1hr in | rain 24hr in | rain mn in | humidity % | barometer mb |
| 20260906220512 | 103 | 297 | 3.5 | 8.7 | 0.00 | 0.00 | 0.00 | 22 | 1005.3 |
| 20260906220012 | 104 | 281 | 1.7 | 8.7 | 0.00 | 0.00 | 0.00 | 22 | 1005.4 |
| 20260906215511 | 104 | 346 | 2.6 | 8.7 | 0.00 | 0.00 | 0.00 | 22 | 1005.5 |
| 20260906215010 | 103 | 178 | 0.9 | 7.8 | 0.00 | 0.00 | 0.00 | 22 | 1005.5 |
| 20260906214517 | 103 | 344 | 2.6 | 7.8 | 0.00 | 0.00 | 0.00 | 22 | 1005.6 |
| 20260906214008 | 103 | 270 | 2.6 | 7.8 | 0.00 | 0.00 | 0.00 | 22 | 1005.7 |
| 20260906213507 | 103 | 243 | 3.5 | 7.8 | 0.00 | 0.00 | 0.00 | 22 | 1005.8 |
| 20260906213007 | 103 | 266 | 4.3 | 7.8 | 0.00 | 0.00 | 0.00 | 23 | 1005.9 |
| 20260906212507 | 103 | 248 | 0.9 | 8.7 | 0.00 | 0.00 | 0.00 | 22 | 1005.9 |
| 20260906212006 | 103 | 267 | 3.5 | 8.7 | 0.00 | 0.00 | 0.00 | 23 | 1005.9 |
| 20260906211505 | 103 | 345 | 4.3 | 8.7 | 0.00 | 0.00 | 0.00 | 23 | 1005.9 |
| 20260906211004 | 103 | 252 | 0.9 | 6.1 | 0.00 | 0.00 | 0.00 | 23 | 1006.0 |
| 20260906210504 | 103 | 301 | 2.6 | 9.6 | 0.00 | 0.00 | 0.00 | 23 | 1006.1 |
| 20260906210005 | 103 | 286 | 4.3 | 9.6 | 0.00 | 0.00 | 0.00 | 23 | 1006.2 |
| 20260906205503 | 103 | 277 | 1.7 | 6.1 | 0.00 | 0.00 | 0.00 | 23 | 1006.2 |
| 20260906205001 | 102 | 243 | 0.9 | 7.8 | 0.00 | 0.00 | 0.00 | 23 | 1006.2 |
| 20260906204502 | 102 | 259 | 3.5 | 7.8 | 0.00 | 0.00 | 0.00 | 24 | 1006.2 |
| 20260906204002 | 102 | 335 | 2.6 | 9.6 | 0.00 | 0.00 | 0.00 | 25 | 1006.1 |
| 20260906203600 | 102 | 277 | 2.6 | 9.6 | 0.00 | 0.00 | 0.00 | 24 | 1006.2 |
| 20260906203100 | 101 | 15 | 0.9 | 7.8 | 0.00 | 0.00 | 0.00 | 23 | 1006.4 |
| 20260906202601 | 102 | 199 | 2.6 | 8.7 | 0.00 | 0.00 | 0.00 | 23 | 1006.4 |
| 20260906202059 | 102 | 257 | 3.5 | 9.6 | 0.00 | 0.00 | 0.00 | 23 | 1006.4 |
| 20260906201611 | 102 | 271 | 3.5 | 7.8 | 0.00 | 0.00 | 0.00 | 23 | 1006.4 |
| 20260906201058 | 101 | 217 | 0.9 | 4.3 | 0.00 | 0.00 | 0.00 | 24 | 1006.4 |
| 20260906200557 | 100 | 238 | 0.0 | 8.7 | 0.00 | 0.00 | 0.00 | 24 | 1006.6 |
| 20260906200057 | 100 | 46 | 2.6 | 8.7 | 0.00 | 0.00 | 0.00 | 26 | 1006.6 |
| 20260906195556 | 100 | 290 | 1.7 | 6.1 | 0.00 | 0.00 | 0.00 | 24 | 1006.7 |
| 20260906195055 | 100 | 262 | 2.6 | 6.1 | 0.00 | 0.00 | 0.00 | 24 | 1006.6 |
| 20260906194555 | 100 | 300 | 0.9 | 8.7 | 0.00 | 0.00 | 0.00 | 24 | 1006.8 |
| 20260906194054 | 100 | 275 | 3.5 | 8.7 | 0.00 | 0.00 | 0.00 | 24 | 1006.8 |
| 20260906193553 | 100 | 223 | 1.7 | 7.8 | 0.00 | 0.00 | 0.00 | 25 | 1006.8 |
| 20260906193053 | 100 | 282 | 2.6 | 7.0 | 0.00 | 0.00 | 0.00 | 24 | 1006.9 |
| 20260906192553 | 99 | 272 | 1.7 | 5.2 | 0.00 | 0.00 | 0.00 | 25 | 1006.9 |
| 20260906192052 | 99 | 222 | 1.7 | 7.0 | 0.00 | 0.00 | 0.00 | 25 | 1006.9 |
| 20260906191551 | 99 | 297 | 2.6 | 7.8 | 0.00 | 0.00 | 0.00 | 26 | 1006.9 |
| 20260906191051 | 99 | 248 | 2.6 | 9.6 | 0.00 | 0.00 | 0.00 | 26 | 1007.1 |
| 20260906190555 | 99 | 275 | 6.1 | 9.6 | 0.00 | 0.00 | 0.00 | 24 | 1007.2 |
| 20260906190106 | 100 | 236 | 3.5 | 8.7 | 0.00 | 0.00 | 0.00 | 24 | 1007.2 |
| 20260906185556 | 100 | 281 | 2.6 | 8.7 | 0.00 | 0.00 | 0.00 | 25 | 1007.3 |
| 20260906185051 | 101 | 327 | 1.7 | 5.2 | 0.00 | 0.00 | 0.00 | 24 | 1007.3 |
| 20260906184550 | 101 | 267 | 0.9 | 5.2 | 0.00 | 0.00 | 0.00 | 24 | 1007.5 |
| 20260906184049 | 101 | 331 | 0.9 | 6.1 | 0.00 | 0.00 | 0.00 | 23 | 1007.5 |
| 20260906183549 | 100 | 174 | 1.7 | 6.1 | 0.00 | 0.00 | 0.00 | 24 | 1007.6 |
| 20260906183104 | 101 | 201 | 1.7 | 5.2 | 0.00 | 0.00 | 0.00 | 24 | 1007.6 |
| 20260906182550 | 101 | 177 | 0.9 | 5.2 | 0.00 | 0.00 | 0.00 | 24 | 1007.8 |
| 20260906182047 | 101 | 174 | 0.9 | 3.5 | 0.00 | 0.00 | 0.00 | 24 | 1007.8 |
| 20260906181545 | 100 | 261 | 0.0 | 2.6 | 0.00 | 0.00 | 0.00 | 25 | 1007.9 |
| 20260906181049 | 99 | 190 | 0.9 | 3.5 | 0.00 | 0.00 | 0.00 | 25 | 1008.1 |
| 20260906180545 | 99 | 117 | 0.0 | 3.5 | 0.00 | 0.00 | 0.00 | 25 | 1008.2 |
| 20260906180100 | 99 | 217 | 0.0 | 3.5 | 0.00 | 0.00 | 0.00 | 25 | 1008.3 |
| 20260906175544 | 99 | 168 | 0.9 | 3.5 | 0.00 | 0.00 | 0.00 | 26 | 1008.3 |
| 20260906175041 | 99 | 5 | 0.0 | 2.6 | 0.00 | 0.00 | 0.00 | 26 | 1008.4 |
| 20260906174541 | 98 | 238 | 0.0 | 2.6 | 0.00 | 0.00 | 0.00 | 26 | 1008.4 |
| 20260906174040 | 98 | 169 | 0.9 | 2.6 | 0.00 | 0.00 | 0.00 | 27 | 1008.4 |
| 20260906173540 | 97 | 102 | 0.0 | 2.6 | 0.00 | 0.00 | 0.00 | 27 | 1008.5 |
| 20260906173039 | 97 | 98 | 0.0 | 3.5 | 0.00 | 0.00 | 0.00 | 28 | 1008.5 |
| 20260906172537 | 97 | 130 | 0.0 | 3.5 | 0.00 | 0.00 | 0.00 | 28 | 1008.6 |
| 20260906172036 | 96 | 153 | 0.0 | 2.6 | 0.00 | 0.00 | 0.00 | 28 | 1008.6 |
| 20260906171535 | 96 | 233 | 0.9 | 2.6 | 0.00 | 0.00 | 0.00 | 29 | 1008.6 |
| 20260906171036 | 96 | 105 | 0.9 | 2.6 | 0.00 | 0.00 | 0.00 | 29 | 1008.6 |
| 20260906170532 | 96 | 141 | 0.9 | 2.6 | 0.00 | 0.00 | 0.00 | 29 | 1008.6 |
| 20260906170103 | 95 | 160 | 0.0 | 2.6 | 0.00 | 0.00 | 0.00 | 31 | 1008.6 |
| 20260906165529 | 94 | 88 | 0.9 | 2.6 | 0.00 | 0.00 | 0.00 | 31 | 1008.7 |
| 20260906165030 | 93 | 155 | 0.0 | 2.6 | 0.00 | 0.00 | 0.00 | 31 | 1008.6 |
| 20260906164526 | 93 | 205 | 0.0 | 1.7 | 0.00 | 0.00 | 0.00 | 32 | 1008.7 |
| 20260906164026 | 93 | 267 | 0.0 | 1.7 | 0.00 | 0.00 | 0.00 | 32 | 1008.6 |
| 20260906163524 | 93 | 236 | 0.0 | 2.6 | 0.00 | 0.00 | 0.00 | 32 | 1008.6 |
| 20260906163024 | 93 | 156 | 0.9 | 2.6 | 0.00 | 0.00 | 0.00 | 32 | 1008.6 |
| 20260906162527 | 92 | 109 | 0.0 | 2.6 | 0.00 | 0.00 | 0.00 | 33 | 1008.5 |
| 20260906162022 | 92 | 194 | 0.9 | 2.6 | 0.00 | 0.00 | 0.00 | 33 | 1008.5 |
| 20260906161522 | 92 | 134 | 0.0 | 2.6 | 0.00 | 0.00 | 0.00 | 34 | 1008.5 |
| 20260906161021 | 91 | 126 | 0.0 | 1.7 | 0.00 | 0.00 | 0.00 | 35 | 1008.6 |
| 20260906160519 | 91 | 162 | 0.0 | 1.7 | 0.00 | 0.00 | 0.00 | 36 | 1008.5 |
| 20260906160018 | 90 | 12 | 0.0 | 1.7 | 0.00 | 0.00 | 0.00 | 37 | 1008.6 |
| 20260906155523 | 90 | 167 | 0.0 | 2.6 | 0.00 | 0.00 | 0.00 | 38 | 1008.6 |
| 20260906155014 | 90 | 148 | 0.0 | 2.6 | 0.00 | 0.00 | 0.00 | 38 | 1008.7 |
| 20260906154520 | 89 | 184 | 0.9 | 2.6 | 0.00 | 0.00 | 0.00 | 38 | 1008.7 |
| 20260906154014 | 89 | 109 | 0.9 | 4.3 | 0.00 | 0.00 | 0.00 | 38 | 1008.7 |
| 20260906153512 | 89 | 105 | 1.7 | 4.3 | 0.00 | 0.00 | 0.00 | 38 | 1008.7 |
| 20260906153016 | 89 | 141 | 0.0 | 2.6 | 0.00 | 0.00 | 0.00 | 38 | 1008.6 |
| 20260906152513 | 89 | 138 | 0.9 | 2.6 | 0.00 | 0.00 | 0.00 | 38 | 1008.6 |
| 20260906152011 | 88 | 140 | 0.0 | 1.7 | 0.00 | 0.00 | 0.00 | 39 | 1008.6 |
| 20260906151508 | 88 | 175 | 0.0 | 1.7 | 0.00 | 0.00 | 0.00 | 39 | 1008.5 |
| 20260906151006 | 88 | 130 | 0.0 | 1.7 | 0.00 | 0.00 | 0.00 | 39 | 1008.5 |
| 20260906150506 | 87 | 159 | 0.0 | 3.5 | 0.00 | 0.00 | 0.00 | 40 | 1008.5 |
| 20260906150005 | 87 | 153 | 0.0 | 3.5 | 0.00 | 0.00 | 0.00 | 40 | 1008.5 |
| 20260906145505 | 87 | 130 | 0.9 | 2.6 | 0.00 | 0.00 | 0.00 | 40 | 1008.4 |
| 20260906145002 | 85 | 126 | 0.0 | 1.7 | 0.00 | 0.00 | 0.00 | 42 | 1008.3 |
| 20260906144500 | 85 | 119 | 0.0 | 1.7 | 0.00 | 0.00 | 0.00 | 42 | 1008.3 |
| 20260906144100 | 84 | 125 | 0.0 | 1.7 | 0.00 | 0.00 | 0.00 | 45 | 1008.3 |
| 20260906143559 | 84 | 228 | 0.0 | 0.9 | 0.00 | 0.00 | 0.00 | 47 | 1008.3 |
| 20260906143128 | 83 | 228 | 0.0 | 0.9 | 0.00 | 0.00 | 0.00 | 47 | 1008.2 |
| 20260906142600 | 83 | 228 | 0.0 | 1.7 | 0.00 | 0.00 | 0.00 | 46 | 1008.2 |
| 20260906142057 | 83 | 228 | 0.0 | 1.7 | 0.00 | 0.00 | 0.00 | 48 | 1008.2 |
| 20260906141555 | 82 | 157 | 0.0 | 1.7 | 0.00 | 0.00 | 0.00 | 49 | 1008.0 |
| 20260906141056 | 82 | 157 | 0.0 | 1.7 | 0.00 | 0.00 | 0.00 | 52 | 1008.0 |
| 20260906140555 | 81 | 157 | 0.0 | 0.0 | 0.00 | 0.00 | 0.00 | 50 | 1007.9 |
| 20260906140054 | 81 | 157 | 0.0 | 1.7 | 0.00 | 0.00 | 0.00 | 47 | 1008.0 |
| 20260906135553 | 81 | 157 | 0.0 | 1.7 | 0.00 | 0.00 | 0.00 | 47 | 1007.9 |
| 20260906135054 | 80 | 188 | 0.0 | 0.0 | 0.00 | 0.00 | 0.00 | 47 | 1007.9 |
| 20260906134558 | 80 | 188 | 0.0 | 1.7 | 0.00 | 0.00 | 0.00 | 48 | 1007.9 |
| 20260906134049 | 80 | 271 | 0.0 | 0.0 | 0.00 | 0.00 | 0.00 | 49 | 1007.9 |
| 20260906133551 | 80 | 271 | 0.0 | 0.0 | 0.00 | 0.00 | 0.00 | 45 | 1007.8 |
| 20260906133049 | 80 | 271 | 0.0 | 0.0 | 0.00 | 0.00 | 0.00 | 44 | 1007.8 |
| 20260906132547 | 80 | 271 | 0.0 | 0.0 | 0.00 | 0.00 | 0.00 | 44 | 1007.8 |
| 20260906132046 | 80 | 41 | 0.0 | 3.5 | 0.00 | 0.00 | 0.00 | 47 | 1007.7 |
| 20260906131549 | 80 | 41 | 1.7 | 3.5 | 0.00 | 0.00 | 0.00 | 44 | 1007.6 |
| 20260906131045 | 80 | 24 | 0.0 | 2.6 | 0.00 | 0.00 | 0.00 | 47 | 1007.6 |
| 20260906130545 | 80 | 57 | 0.0 | 3.5 | 0.00 | 0.00 | 0.00 | 46 | 1007.6 |
| 20260906130051 | 80 | 71 | 0.9 | 3.5 | 0.00 | 0.00 | 0.00 | 45 | 1007.6 |
| 20260906125545 | 80 | 61 | 0.9 | 2.6 | 0.00 | 0.00 | 0.00 | 44 | 1007.5 |
| 20260906125045 | 81 | 38 | 0.0 | 2.6 | 0.00 | 0.00 | 0.00 | 45 | 1007.5 |
| 20260906124547 | 81 | 65 | 0.9 | 2.6 | 0.00 | 0.00 | 0.00 | 43 | 1007.4 |
| 20260906124045 | 81 | 314 | 0.0 | 0.0 | 0.00 | 0.00 | 0.00 | 45 | 1007.4 |
| 20260906123545 | 81 | 295 | 0.0 | 0.0 | 0.00 | 0.00 | 0.00 | 46 | 1007.3 |
| 20260906123112 | 81 | 295 | 0.0 | 0.0 | 0.00 | 0.00 | 0.00 | 45 | 1007.3 |
| 20260906122543 | 80 | 295 | 0.0 | 1.7 | 0.00 | 0.00 | 0.00 | 45 | 1007.3 |
| 20260906122044 | 80 | 295 | 0.0 | 3.5 | 0.00 | 0.00 | 0.00 | 45 | 1007.2 |
| 20260906121544 | 80 | 295 | 0.9 | 3.5 | 0.00 | 0.00 | 0.00 | 47 | 1007.3 |
| 20260906121043 | 80 | 122 | 0.0 | 1.7 | 0.00 | 0.00 | 0.00 | 44 | 1007.2 |
| 20260906120543 | 80 | 298 | 0.0 | 0.0 | 0.00 | 0.00 | 0.00 | 45 | 1007.4 |
| 20260906120043 | 80 | 298 | 0.0 | 0.0 | 0.00 | 0.00 | 0.00 | 47 | 1007.3 |
| 20260906115542 | 80 | 298 | 0.0 | 0.0 | 0.00 | 0.00 | 0.00 | 45 | 1007.3 |
| 20260906115042 | 80 | 298 | 0.0 | 0.0 | 0.00 | 0.00 | 0.00 | 47 | 1007.3 |
| 20260906114541 | 81 | 298 | 0.0 | 0.0 | 0.00 | 0.00 | 0.00 | 45 | 1007.3 |
| 20260906114043 | 81 | 298 | 0.0 | 0.0 | 0.00 | 0.00 | 0.00 | 48 | 1007.3 |
| 20260906113540 | 81 | 298 | 0.0 | 0.9 | 0.00 | 0.00 | 0.00 | 46 | 1007.3 |
| 20260906113042 | 81 | 298 | 0.0 | 0.9 | 0.00 | 0.00 | 0.00 | 46 | 1007.2 |
| 20260906112538 | 81 | 298 | 0.0 | 0.0 | 0.00 | 0.00 | 0.00 | 43 | 1007.2 |
| 20260906112038 | 81 | 298 | 0.0 | 0.0 | 0.00 | 0.00 | 0.00 | 44 | 1007.2 |
| 20260906111538 | 82 | 298 | 0.0 | 0.0 | 0.00 | 0.00 | 0.00 | 44 | 1007.2 |
| 20260906111037 | 82 | 298 | 0.0 | 0.0 | 0.00 | 0.00 | 0.00 | 45 | 1007.2 |
| 20260906110536 | 82 | 298 | 0.0 | 1.7 | 0.00 | 0.00 | 0.00 | 45 | 1007.2 |
| 20260906110036 | 82 | 298 | 0.0 | 1.7 | 0.00 | 0.00 | 0.00 | 42 | 1007.2 |
| 20260906105535 | 82 | 298 | 0.0 | 1.7 | 0.00 | 0.00 | 0.00 | 42 | 1007.3 |
| 20260906105034 | 82 | 298 | 0.0 | 1.7 | 0.00 | 0.00 | 0.00 | 44 | 1007.3 |
| 20260906104534 | 82 | 298 | 0.0 | 1.7 | 0.00 | 0.00 | 0.00 | 42 | 1007.3 |
| 20260906104037 | 82 | 298 | 0.0 | 0.0 | 0.00 | 0.00 | 0.00 | 44 | 1007.3 |
| 20260906103535 | 82 | 298 | 0.0 | 0.0 | 0.00 | 0.00 | 0.00 | 41 | 1007.3 |
| 20260906103033 | 82 | 298 | 0.0 | 0.0 | 0.00 | 0.00 | 0.00 | 43 | 1007.3 |
| 20260906102534 | 82 | 298 | 0.0 | 0.0 | 0.00 | 0.00 | 0.00 | 41 | 1007.3 |
| 20260906102033 | 82 | 298 | 0.0 | 1.7 | 0.00 | 0.00 | 0.00 | 41 | 1007.2 |
| 20260906101533 | 82 | 298 | 0.0 | 1.7 | 0.00 | 0.00 | 0.00 | 42 | 1007.1 |
| 20260906101032 | 82 | 298 | 0.0 | 1.7 | 0.00 | 0.00 | 0.00 | 42 | 1007.1 |
| 20260906100534 | 82 | 298 | 0.0 | 1.7 | 0.00 | 0.00 | 0.00 | 43 | 1007.1 |
| 20260906100032 | 83 | 298 | 0.0 | 0.0 | 0.00 | 0.00 | 0.00 | 42 | 1007.1 |
| 20260906095532 | 83 | 298 | 0.0 | 0.9 | 0.00 | 0.00 | 0.00 | 45 | 1007.2 |
| 20260906095034 | 83 | 298 | 0.0 | 0.9 | 0.00 | 0.00 | 0.00 | 44 | 1007.1 |
| 20260906094530 | 83 | 298 | 0.0 | 1.7 | 0.00 | 0.00 | 0.00 | 44 | 1007.1 |
| 20260906094030 | 83 | 298 | 0.0 | 1.7 | 0.00 | 0.00 | 0.00 | 43 | 1007.0 |
| 20260906093530 | 83 | 298 | 0.0 | 1.7 | 0.00 | 0.00 | 0.00 | 40 | 1007.0 |
| 20260906093029 | 83 | 298 | 0.0 | 1.7 | 0.00 | 0.00 | 0.00 | 40 | 1007.0 |
| 20260906092527 | 84 | 298 | 0.0 | 0.0 | 0.00 | 0.00 | 0.00 | 42 | 1007.0 |
| 20260906092026 | 84 | 298 | 0.0 | 0.0 | 0.00 | 0.00 | 0.00 | 42 | 1007.0 |
| 20260906091532 | 84 | 298 | 0.0 | 1.7 | 0.00 | 0.00 | 0.00 | 41 | 1007.1 |
| 20260906091025 | 84 | 298 | 0.0 | 1.7 | 0.00 | 0.00 | 0.00 | 40 | 1007.1 |
| 20260906090524 | 84 | 298 | 0.0 | 1.7 | 0.00 | 0.00 | 0.00 | 42 | 1007.1 |
| 20260906090024 | 84 | 298 | 0.0 | 1.7 | 0.00 | 0.00 | 0.00 | 42 | 1007.1 |
| 20260906085527 | 85 | 298 | 0.0 | 1.7 | 0.00 | 0.00 | 0.00 | 41 | 1007.1 |
| 20260906085023 | 85 | 159 | 0.0 | 1.7 | 0.00 | 0.00 | 0.00 | 39 | 1007.1 |
| 20260906084523 | 85 | 326 | 0.0 | 1.7 | 0.00 | 0.00 | 0.00 | 38 | 1007.2 |
| 20260906084026 | 85 | 326 | 0.0 | 1.7 | 0.00 | 0.00 | 0.00 | 38 | 1007.2 |
| 20260906083524 | 85 | 326 | 0.0 | 0.9 | 0.00 | 0.00 | 0.00 | 39 | 1007.3 |
| 20260906083027 | 85 | 315 | 0.0 | 0.0 | 0.00 | 0.00 | 0.00 | 39 | 1007.2 |
| 20260906082522 | 85 | 315 | 0.0 | 0.0 | 0.00 | 0.00 | 0.00 | 41 | 1007.2 |
| 20260906082022 | 85 | 315 | 0.0 | 0.0 | 0.00 | 0.00 | 0.00 | 37 | 1007.2 |
| 20260906081521 | 85 | 315 | 0.0 | 1.7 | 0.00 | 0.00 | 0.00 | 37 | 1007.2 |
| 20260906081021 | 85 | 310 | 0.0 | 1.7 | 0.00 | 0.00 | 0.00 | 37 | 1007.3 |
| 20260906080522 | 85 | 62 | 0.0 | 0.0 | 0.00 | 0.00 | 0.00 | 40 | 1007.3 |
| 20260906080028 | 85 | 62 | 0.0 | 1.7 | 0.00 | 0.00 | 0.00 | 42 | 1007.4 |
| 20260906075519 | 85 | 62 | 0.0 | 1.7 | 0.00 | 0.00 | 0.00 | 37 | 1007.5 |
| 20260906075019 | 86 | 62 | 0.0 | 0.0 | 0.00 | 0.00 | 0.00 | 37 | 1007.5 |
| 20260906074519 | 86 | 62 | 0.0 | 0.0 | 0.00 | 0.00 | 0.00 | 39 | 1007.5 |
| 20260906074019 | 86 | 62 | 0.0 | 0.0 | 0.00 | 0.00 | 0.00 | 37 | 1007.5 |
| 20260906073518 | 86 | 62 | 0.0 | 0.0 | 0.00 | 0.00 | 0.00 | 37 | 1007.6 |
| 20260906073018 | 86 | 62 | 0.0 | 1.7 | 0.00 | 0.00 | 0.00 | 38 | 1007.6 |
| 20260906072516 | 86 | 62 | 0.0 | 2.6 | 0.00 | 0.00 | 0.00 | 37 | 1007.7 |
| 20260906072016 | 86 | 57 | 0.0 | 3.5 | 0.00 | 0.00 | 0.00 | 38 | 1007.7 |
| 20260906071514 | 85 | 29 | 0.0 | 3.5 | 0.00 | 0.00 | 0.00 | 40 | 1007.7 |
| 20260906071015 | 85 | 33 | 0.0 | 1.7 | 0.00 | 0.00 | 0.00 | 41 | 1007.8 |
| 20260906070512 | 85 | 5 | 0.0 | 0.0 | 0.00 | 0.00 | 0.00 | 42 | 1007.8 |
| 20260906070011 | 85 | 5 | 0.0 | 0.0 | 0.00 | 0.00 | 0.00 | 44 | 1007.9 |
| 20260906065511 | 85 | 5 | 0.0 | 0.0 | 0.00 | 0.00 | 0.00 | 45 | 1007.9 |
| 20260906065011 | 85 | 5 | 0.0 | 0.0 | 0.00 | 0.00 | 0.00 | 44 | 1007.9 |
| 20260906064511 | 85 | 5 | 0.0 | 0.0 | 0.00 | 0.00 | 0.00 | 43 | 1007.8 |
| 20260906064011 | 85 | 5 | 0.0 | 0.0 | 0.00 | 0.00 | 0.00 | 44 | 1007.8 |
| 20260906063510 | 85 | 5 | 0.0 | 0.0 | 0.00 | 0.00 | 0.00 | 39 | 1007.8 |
| 20260906063010 | 85 | 5 | 0.0 | 0.0 | 0.00 | 0.00 | 0.00 | 41 | 1007.8 |
| 20260906062509 | 85 | 5 | 0.0 | 0.0 | 0.00 | 0.00 | 0.00 | 42 | 1007.8 |
| 20260906062010 | 85 | 111 | 0.0 | 0.0 | 0.00 | 0.00 | 0.00 | 40 | 1007.8 |
| 20260906061510 | 85 | 111 | 0.0 | 1.7 | 0.00 | 0.00 | 0.00 | 41 | 1007.8 |
| 20260906061009 | 86 | 40 | 0.0 | 1.7 | 0.00 | 0.00 | 0.00 | 43 | 1007.8 |
| 20260906060511 | 86 | 257 | 0.0 | 0.0 | 0.00 | 0.00 | 0.00 | 45 | 1007.7 |
| 20260906060008 | 86 | 257 | 0.0 | 0.0 | 0.00 | 0.00 | 0.00 | 48 | 1007.7 |
| 20260906055510 | 87 | 257 | 0.0 | 0.0 | 0.00 | 0.00 | 0.00 | 44 | 1007.8 |
| 20260906055008 | 87 | 257 | 0.0 | 0.0 | 0.00 | 0.00 | 0.00 | 44 | 1007.8 |
| 20260906054509 | 87 | 257 | 0.0 | 0.0 | 0.00 | 0.00 | 0.00 | 40 | 1007.8 |
| 20260906054009 | 87 | 257 | 0.0 | 0.0 | 0.00 | 0.00 | 0.00 | 44 | 1007.8 |
| 20260906053512 | 87 | 257 | 0.0 | 0.0 | 0.00 | 0.00 | 0.00 | 39 | 1007.9 |
| 20260906053008 | 87 | 257 | 0.0 | 0.0 | 0.00 | 0.00 | 0.00 | 37 | 1007.9 |
| 20260906052508 | 87 | 257 | 0.0 | 0.0 | 0.00 | 0.00 | 0.00 | 36 | 1007.8 |
| 20260906052009 | 87 | 257 | 0.0 | 0.0 | 0.00 | 0.00 | 0.00 | 41 | 1007.8 |
| 20260906051507 | 87 | 257 | 0.0 | 0.0 | 0.00 | 0.00 | 0.00 | 40 | 1007.8 |
| 20260906051009 | 87 | 257 | 0.0 | 0.9 | 0.00 | 0.00 | 0.00 | 42 | 1007.8 |
| 20260906050509 | 87 | 257 | 0.0 | 1.7 | 0.00 | 0.00 | 0.00 | 40 | 1007.9 |
| 20260906050008 | 87 | 257 | 0.0 | 1.7 | 0.00 | 0.00 | 0.00 | 36 | 1007.9 |
| 20260906045510 | 87 | 257 | 0.0 | 0.0 | 0.00 | 0.00 | 0.00 | 36 | 1007.9 |
| 20260906045008 | 87 | 257 | 0.0 | 0.0 | 0.00 | 0.00 | 0.00 | 44 | 1007.9 |
| 20260906044507 | 87 | 257 | 0.0 | 0.0 | 0.00 | 0.00 | 0.00 | 44 | 1007.9 |
| 20260906044010 | 87 | 257 | 0.0 | 0.0 | 0.00 | 0.00 | 0.00 | 39 | 1007.9 |
| 20260906043506 | 88 | 257 | 0.0 | 1.7 | 0.00 | 0.00 | 0.00 | 41 | 1008.0 |
| 20260906043006 | 88 | 257 | 0.0 | 1.7 | 0.00 | 0.00 | 0.00 | 36 | 1007.9 |
| 20260906042505 | 88 | 257 | 0.0 | 1.7 | 0.00 | 0.00 | 0.00 | 43 | 1008.0 |
| 20260906042005 | 88 | 257 | 0.0 | 0.0 | 0.00 | 0.00 | 0.00 | 38 | 1008.0 |
| 20260906041506 | 88 | 257 | 0.0 | 0.0 | 0.00 | 0.00 | 0.00 | 35 | 1008.0 |
| 20260906041008 | 88 | 257 | 0.0 | 0.0 | 0.00 | 0.00 | 0.00 | 36 | 1008.1 |
| 20260906040505 | 88 | 257 | 0.0 | 0.0 | 0.00 | 0.00 | 0.00 | 35 | 1008.0 |
| 20260906040008 | 89 | 257 | 0.0 | 0.0 | 0.00 | 0.00 | 0.00 | 38 | 1008.1 |
| 20260906035507 | 89 | 257 | 0.0 | 0.0 | 0.00 | 0.00 | 0.00 | 39 | 1008.0 |
| 20260906035005 | 89 | 257 | 0.0 | 0.0 | 0.00 | 0.00 | 0.00 | 38 | 1008.0 |
| 20260906034505 | 89 | 257 | 0.0 | 0.0 | 0.00 | 0.00 | 0.00 | 36 | 1007.9 |
| 20260906034004 | 90 | 257 | 0.0 | 0.0 | 0.00 | 0.00 | 0.00 | 36 | 1007.8 |
| 20260906033505 | 90 | 257 | 0.0 | 0.0 | 0.00 | 0.00 | 0.00 | 38 | 1007.7 |
| 20260906033012 | 90 | 257 | 0.0 | 0.0 | 0.00 | 0.00 | 0.00 | 36 | 1007.7 |
| 20260906032503 | 90 | 257 | 0.0 | 0.0 | 0.00 | 0.00 | 0.00 | 37 | 1007.5 |
| 20260906032004 | 90 | 257 | 0.0 | 0.0 | 0.00 | 0.00 | 0.00 | 35 | 1007.5 |
| 20260906031503 | 91 | 257 | 0.0 | 0.0 | 0.00 | 0.00 | 0.00 | 35 | 1007.4 |
| 20260906031004 | 91 | 257 | 0.0 | 0.0 | 0.00 | 0.00 | 0.00 | 35 | 1007.4 |
| 20260906030504 | 91 | 257 | 0.0 | 1.7 | 0.00 | 0.00 | 0.00 | 33 | 1007.3 |
| 20260906030004 | 91 | 257 | 0.0 | 1.7 | 0.00 | 0.00 | 0.00 | 32 | 1007.3 |
| 20260906025503 | 91 | 257 | 0.0 | 0.0 | 0.00 | 0.00 | 0.00 | 33 | 1007.2 |
| 20260906025004 | 92 | 257 | 0.0 | 0.0 | 0.00 | 0.00 | 0.00 | 33 | 1007.2 |
| 20260906024502 | 92 | 257 | 0.0 | 0.0 | 0.00 | 0.00 | 0.00 | 33 | 1007.2 |
| 20260906024003 | 92 | 257 | 0.0 | 0.0 | 0.00 | 0.00 | 0.00 | 31 | 1007.1 |
| 20260906023504 | 92 | 257 | 0.0 | 1.7 | 0.00 | 0.00 | 0.00 | 31 | 1007.2 |
| 20260906023002 | 92 | 257 | 0.0 | 1.7 | 0.00 | 0.00 | 0.00 | 30 | 1007.1 |
| 20260906022505 | 92 | 302 | 0.0 | 1.7 | 0.00 | 0.00 | 0.00 | 30 | 1007.1 |
| 20260906022003 | 92 | 302 | 0.0 | 1.7 | 0.00 | 0.00 | 0.00 | 29 | 1007.1 |
| 20260906021502 | 93 | 275 | 0.0 | 3.5 | 0.00 | 0.00 | 0.00 | 29 | 1007.2 |
| 20260906021001 | 93 | 293 | 1.7 | 3.5 | 0.00 | 0.00 | 0.00 | 29 | 1007.2 |
| 20260906020602 | 93 | 304 | 0.9 | 4.3 | 0.00 | 0.00 | 0.00 | 29 | 1007.2 |
| 20260906020107 | 93 | 311 | 1.7 | 4.3 | 0.00 | 0.00 | 0.00 | 29 | 1007.3 |
| 20260906015601 | 93 | 315 | 1.7 | 4.3 | 0.00 | 0.00 | 0.00 | 29 | 1007.3 |
| 20260906015059 | 93 | 304 | 2.6 | 7.0 | 0.00 | 0.00 | 0.00 | 29 | 1007.3 |
| 20260906014602 | 93 | 329 | 1.7 | 7.0 | 0.00 | 0.00 | 0.00 | 29 | 1007.4 |
| 20260906014059 | 93 | 311 | 0.9 | 4.3 | 0.00 | 0.00 | 0.00 | 29 | 1007.4 |
| 20260906013601 | 94 | 331 | 1.7 | 4.3 | 0.00 | 0.00 | 0.00 | 29 | 1007.4 |
| 20260906013109 | 94 | 284 | 1.7 | 7.0 | 0.00 | 0.00 | 0.00 | 29 | 1007.5 |
| 20260906012559 | 94 | 286 | 3.5 | 7.8 | 0.00 | 0.00 | 0.00 | 29 | 1007.5 |
| 20260906012058 | 94 | 297 | 5.2 | 7.8 | 0.00 | 0.00 | 0.00 | 28 | 1007.6 |
| 20260906011606 | 94 | 294 | 3.5 | 7.8 | 0.00 | 0.00 | 0.00 | 28 | 1007.5 |
| 20260906011058 | 94 | 261 | 4.3 | 9.6 | 0.00 | 0.00 | 0.00 | 28 | 1007.4 |
| 20260906010557 | 94 | 310 | 6.1 | 9.6 | 0.00 | 0.00 | 0.00 | 28 | 1007.5 |
| 20260906010059 | 95 | 302 | 4.3 | 7.8 | 0.00 | 0.00 | 0.00 | 28 | 1007.5 |
| 20260906005557 | 95 | 301 | 4.3 | 7.8 | 0.00 | 0.00 | 0.00 | 28 | 1007.5 |
| 20260906005057 | 95 | 265 | 2.6 | 7.8 | 0.00 | 0.00 | 0.00 | 28 | 1007.4 |
| 20260906004604 | 95 | 292 | 3.5 | 7.0 | 0.00 | 0.00 | 0.00 | 27 | 1007.4 |
| 20260906004057 | 95 | 293 | 2.6 | 6.1 | 0.00 | 0.00 | 0.00 | 27 | 1007.3 |
| 20260906003558 | 95 | 321 | 1.7 | 7.8 | 0.00 | 0.00 | 0.00 | 27 | 1007.4 |
| 20260906003103 | 95 | 338 | 2.6 | 7.8 | 0.00 | 0.00 | 0.00 | 28 | 1007.4 |
| 20260906002556 | 96 | 296 | 2.6 | 8.7 | 0.00 | 0.00 | 0.00 | 27 | 1007.3 |
| 20260906002056 | 96 | 322 | 4.3 | 8.7 | 0.00 | 0.00 | 0.00 | 27 | 1007.4 |
| 20260906001556 | 96 | 301 | 1.7 | 7.0 | 0.00 | 0.00 | 0.00 | 27 | 1007.3 |
| 20260906001057 | 96 | 343 | 3.5 | 10.4 | 0.00 | 0.00 | 0.00 | 26 | 1007.3 |
| 20260906000555 | 97 | 319 | 5.2 | 10.4 | 0.00 | 0.00 | 0.00 | 26 | 1007.3 |
| 20260906000058 | 97 | 292 | 1.7 | 10.4 | 0.00 | 0.00 | 0.00 | 27 | 1007.4 |
| 20260905235556 | 97 | 276 | 5.2 | 10.4 | 0.00 | 0.00 | 0.00 | 26 | 1007.5 |
| 20260905235056 | 98 | 270 | 4.3 | 8.7 | 0.00 | 0.00 | 0.00 | 26 | 1007.4 |
| 20260905234556 | 98 | 324 | 5.2 | 8.7 | 0.00 | 0.00 | 0.00 | 26 | 1007.4 |
| 20260905234056 | 98 | 313 | 1.7 | 7.8 | 0.00 | 0.00 | 0.00 | 26 | 1007.3 |
| 20260905233556 | 98 | 281 | 2.6 | 8.7 | 0.00 | 0.00 | 0.00 | 25 | 1007.3 |
| 20260905233054 | 98 | 289 | 5.2 | 8.7 | 0.00 | 0.00 | 0.00 | 25 | 1007.3 |
| 20260905232554 | 98 | 301 | 5.2 | 8.7 | 0.00 | 0.00 | 0.00 | 25 | 1007.3 |
| 20260905232054 | 98 | 290 | 2.6 | 8.7 | 0.00 | 0.00 | 0.00 | 25 | 1007.3 |
| 20260905231554 | 98 | 281 | 3.5 | 9.6 | 0.00 | 0.00 | 0.00 | 25 | 1007.3 |
| 20260905231053 | 99 | 274 | 4.3 | 9.6 | 0.00 | 0.00 | 0.00 | 24 | 1007.3 |
| 20260905230553 | 99 | 304 | 0.9 | 6.1 | 0.00 | 0.00 | 0.00 | 24 | 1007.4 |
| 20260905230054 | 99 | 300 | 2.6 | 7.8 | 0.00 | 0.00 | 0.00 | 24 | 1007.4 |
| 20260905225553 | 100 | 294 | 4.3 | 8.7 | 0.00 | 0.00 | 0.00 | 23 | 1007.4 |
| 20260905225052 | 100 | 257 | 1.7 | 8.7 | 0.00 | 0.00 | 0.00 | 23 | 1007.4 |
| 20260905224555 | 101 | 261 | 5.2 | 8.7 | 0.00 | 0.00 | 0.00 | 23 | 1007.5 |
| 20260905224052 | 101 | 309 | 1.7 | 7.0 | 0.00 | 0.00 | 0.00 | 23 | 1007.4 |
| 20260905223553 | 101 | 281 | 1.7 | 7.0 | 0.00 | 0.00 | 0.00 | 23 | 1007.4 |
| 20260905223051 | 100 | 286 | 0.9 | 7.0 | 0.00 | 0.00 | 0.00 | 23 | 1007.5 |
| 20260905222549 | 100 | 323 | 3.5 | 6.1 | 0.00 | 0.00 | 0.00 | 23 | 1007.5 |
| 20260905222049 | 101 | 250 | 0.9 | 5.2 | 0.00 | 0.00 | 0.00 | 23 | 1007.6 |
| 20260905221549 | 100 | 319 | 0.9 | 6.1 | 0.00 | 0.00 | 0.00 | 23 | 1007.7 |
| 20260905221049 | 100 | 196 | 1.7 | 7.8 | 0.00 | 0.00 | 0.00 | 23 | 1007.8 |